Nashville, TN

5:11 AM CST on December 10, 2019 (GMT -0600)
Nashville International

Weather History for KBNA - October, 2019

Change the Weather History Date:

Friday, October 11, 2019

  Actual Average Record
Temperature  
Mean Temperature 67 °F 62 °F  
Max Temperature 86 °F 73 °F 89 °F (1879)
Min Temperature 48 °F 50 °F 29 °F (1906)
Degree Days  
Heating Degree Days 0    
Month to date heating degree days 3  
Since 1 July heating degree days 3  
Cooling Degree Days 2    
Month to date cooling degree days 100  
Year to date cooling degree days 2271  
Growing Degree Days 17 (Base 50)    
Moisture  
Dew Point 55 °F    
Average Humidity 70    
Maximum Humidity 93    
Minimum Humidity 34    
Precipitation  
Precipitation 0.30 in 0.09 in 1.16 in (1900)
Month to date precipitation 2.49 1.08  
Year to date precipitation 49.91 36.74  
Sea Level Pressure  
Sea Level Pressure 30.05 in    
Wind  
Wind Speed 10 mph ()    
Max Wind Speed 22 mph    
Max Gust Speed 29 mph    
Visibility 8.0 miles    
Events Rain    
T = Trace of Precipitation, MM = Missing Value Source: Averaged Metar Reports

Daily Weather History Graph

Daily Weather History Graph

Search for Another Location

Airport or City:

Astronomy

Oct. 11, 2019 Rise Set
Actual Time 6:49 AM CDT 6:16 PM CDT
Civil Twilight 6:24 AM CDT 6:42 PM CDT
Nautical Twilight 5:54 AM CDT 7:11 PM CDT
Astronomical Twilight 5:24 AM CDT 7:41 PM CDT
Moon 5:39 PM CDT (10/11) 4:36 AM CDT (10/11)
Length of Visible Light 12h 17m
Length of Day
11h 26m
Waxing Gibbous, 96% of the Moon is Illuminated
Oct 11
Waxing Gibbous
Oct 13
Full
Oct 21
Last Quarter
Oct 27
New
Nov 4
First Quarter

Hourly Weather History & Observations

Time (CDT) Temp. Heat Index Dew Point Humidity Pressure Visibility Wind Dir Wind Speed Gust Speed Precip Events Conditions
12:53 AM 69.1 °F - 61.0 °F 75% 30.03 in 10.0 mi South 3.5 mph - N/A   Partly Cloudy
1:53 AM 69.1 °F - 61.0 °F 75% 30.02 in 10.0 mi SSE 4.6 mph - N/A   Scattered Clouds
2:53 AM 69.1 °F - 60.1 °F 73% 30.01 in 10.0 mi SSE 6.9 mph - N/A   Mostly Cloudy
3:53 AM 69.1 °F - 60.1 °F 73% 30.01 in 10.0 mi SSE 9.2 mph - N/A   Mostly Cloudy
4:53 AM 70.0 °F - 59.0 °F 68% 30.02 in 10.0 mi SSE 9.2 mph - N/A   Overcast
5:53 AM 70.0 °F - 57.0 °F 63% 30.03 in 10.0 mi South 12.7 mph - N/A   Mostly Cloudy
6:53 AM 70.0 °F - 57.0 °F 63% 30.05 in 10.0 mi South 10.4 mph - N/A   Mostly Cloudy
7:53 AM 70.0 °F - 57.0 °F 63% 30.06 in 10.0 mi South 12.7 mph - N/A   Mostly Cloudy
8:53 AM 72.0 °F - 57.0 °F 59% 30.06 in 10.0 mi South 15.0 mph - N/A   Overcast
9:53 AM 73.9 °F - 55.9 °F 53% 30.06 in 10.0 mi South 17.3 mph - N/A   Mostly Cloudy
10:53 AM 80.1 °F 80.2 °F 55.9 °F 43% 30.06 in 10.0 mi South 13.8 mph 25.3 mph N/A   Mostly Cloudy
11:53 AM 79.0 °F - 55.0 °F 44% 30.04 in 10.0 mi South 16.1 mph 25.3 mph N/A   Overcast
12:53 PM 84.0 °F 82.9 °F 55.0 °F 37% 30.01 in 10.0 mi South 15.0 mph 21.9 mph N/A   Mostly Cloudy
1:53 PM 82.9 °F 81.9 °F 54.0 °F 37% 29.98 in 10.0 mi SW 12.7 mph 24.2 mph N/A   Mostly Cloudy
2:53 PM 84.0 °F 82.6 °F 54.0 °F 35% 29.96 in 10.0 mi South 21.9 mph 28.8 mph N/A   Mostly Cloudy
3:53 PM 81.0 °F 80.5 °F 54.0 °F 39% 29.95 in 10.0 mi SSW 12.7 mph - N/A   Mostly Cloudy
4:53 PM 78.1 °F - 57.0 °F 48% 29.97 in 9.0 mi SW 8.1 mph - 0.00 in Rain Light Rain
5:53 PM 70.0 °F - 64.0 °F 81% 30.00 in 6.0 mi WNW 8.1 mph - 0.02 in Rain Light Rain
6:53 PM 68.0 °F - 64.0 °F 87% 30.00 in 8.0 mi SSW 6.9 mph - 0.02 in Rain Light Rain
7:43 PM 63.0 °F - 60.1 °F 90% 30.03 in 4.0 mi NW 16.1 mph 27.6 mph 0.03 in Rain Rain
7:51 PM 60.8 °F - 57.2 °F 88% 30.05 in 3.0 mi NW 18.4 mph 25.3 mph 0.05 in Rain Rain
7:52 PM 60.1 °F - 55.9 °F 86% 30.04 in 3.0 mi NW 18.4 mph 25.3 mph 0.05 in Rain Rain
7:53 PM 60.1 °F - 55.9 °F 86% 30.04 in 3.0 mi NW 18.4 mph 25.3 mph 0.05 in Rain Rain
8:53 PM 55.0 °F - 52.0 °F 89% 30.09 in 5.0 mi NNW 17.3 mph - 0.05 in Rain Light Rain
9:53 PM 52.0 °F - 48.0 °F 86% 30.11 in 5.0 mi North 12.7 mph - 0.04 in Rain Light Rain
10:18 PM 51.1 °F - 46.9 °F 86% 30.14 in 2.5 mi NNW 12.7 mph - 0.03 in Rain Rain
10:35 PM 50.0 °F - 46.9 °F 89% 30.13 in 3.0 mi North 11.5 mph - 0.06 in Rain Rain
10:53 PM 50.0 °F - 46.0 °F 86% 30.13 in 10.0 mi NNW 13.8 mph - 0.07 in Rain Light Rain
11:30 PM 50.0 °F - 46.0 °F 86% 30.15 in 10.0 mi NNW 11.5 mph - 0.00 in Rain Light Rain
11:43 PM 48.9 °F - 46.0 °F 90% 30.15 in 6.0 mi NNW 9.2 mph - 0.01 in Rain Light Rain
11:53 PM 48.9 °F - 46.0 °F 90% 30.15 in 10.0 mi NNW 6.9 mph - 0.01 in Rain Light Rain